SL-16 DEB

Satellite information

Favourite Embed

Satellite Type and Status

DEBRISIN ORBIT

Key statistics

Satellite SL-16 DEB at a glance.

Uptime

11883

Days in orbit

Revolutions

≈ 14.0

Per day

Orbit

LEO

Low Earth Orbit

Inclination

70.9

Latest

Satellite identification and parameters

Extended collection of information and parameters for SL-16 DEB.

Object identification

Identified? True

Debris? True

Object name: SL-16 DEB

International designator: 1992-093KN

Object number (NORAD): 39722

Object ID (CCSDS): 39722

Country: COMMONWEALTH OF INDEPENDENT STATES (CIS)

Current information (Y/N): Y

RCS size: SMALL

Orbital parameters

Period: 102.734 minutes

Inclination: 70.894 deg

SMA: 7266.126 km

Apoapsis: 963.388 km

Periapsis: 812.593 km

RAAN: 15.3989 deg

Eccentricy: 0.0103766

Argument of periapsis: 56.8312 deg

Mean anomaly: 116.0769 deg

Mean motion: 14.01678469 rev/day

Mean motion (dot): 0.00000316 rev/day2

B* drag term: 0.00022767 1/REarth

Two-line elements (TLE)

Creation date: July 4, 2025, 6:39 p.m.

Reference frame: TEME

Reference center: EARTH

Epoch: July 4, 2025, 6:16 a.m. UTC

TLE line 0: 0 SL-16 DEB

TLE line 1: 1 39722U 92093KN 25185.26160670 .00000316 00000-0 22767-3 0 9992

TLE line 2: 2 39722 70.8940 15.3989 0103766 56.8312 116.0769 14.01678469572882

Live tracking on map

Real-time ground track for satellite SL-16 DEB.

In-orbit conjunctions

A list of the most updated potential collisions computed for object SL-16 DEB.

Target Orbit TCA Probability of collision Miss distance Type
SL-8 R/B LEO 2025-05-21 04:23:04 0.0001451764 568.0 (m) ROCKET BODY
AAU CUBESAT SSO 2024-06-27 05:22:58 0.0001124644 601.0 (m) PAYLOAD

Associated space launch

Second generation ELING satellite

SL-16 DEB was lifted into orbit during the mission ‘Zenit-2 | Tselina-2 12’, on board a Zenit-2 space rocket.

The launch took place on Dec. 25, 1992, 5:56 a.m. from 45/1.

For more information about the launch, click the button.

Launch to space Zenit-2 | Tselina-2 12
Zenit-2 | Tselina-2 12

Agency: N/A

Status: Launch Successful

Launch date: Dec. 25, 1992, 5:56 a.m. UTC

Rocket: Zenit-2

Launch pad: 45/1

Location: Baikonur Cosmodrome, Republic of Kazakhstan

...

Latest news about this satellite

There are no fresh news available about this satellite. Check back as we update our databases every day.


Newsletter sign-up

Weekly statistics, charts and insights to help you stay on top of the space industry.